{"data":{"norad_id":51147,"epoch":"2026-09-20T04:47:09.143232Z","epoch_age_seconds":74155,"freshness":"FRESH","line1":"1 51147U 22005AV  26263.19941138  .00023556  00000+0  64115-3 0  9992","line2":"2 51147  53.1856 112.2135 0003292 142.0315 218.0922 15.37423315258570","mean_motion":15.37423315,"eccentricity":0.0003292,"inclination_deg":53.1856,"raan_deg":112.2135,"arg_perigee_deg":142.0315,"mean_anomaly_deg":218.0922,"bstar":0.00064115,"rev_number":25857,"period_min":93.663208171134,"perigee_km":451.48298837965,"apogee_km":455.98109095537,"semimajor_km":6831.8690396675,"source":"CELESTRAK","updated_at":"2026-09-20T09:00:39.592616Z"}}